This demonstration page uses our WeatherBlox Daily Observations layout. Learn more.

Left ArrowRight Arrow

53.62937, 11.41316

Hourly Observations for July 23, 2022

Temp ( °F °C ) Dew Point ( °F °C ) Humidity (%) Winds ( mph kmh ) Pressure ( in mb ) Visibility ( mi km ) Precip ( " mm )
12:20 am 00:20 Cloudy 59 15 50 10 72 72 W 5 7 30.03 1017 30 48 N/A
12:50 am 00:50 Mostly Cloudy 59 15 52 11 77 77 VRB 1 2 30.03 1017 30 48 N/A
1:20 am 01:20 Mostly Cloudy 57 14 52 11 82 82 VRB 2 4 30.03 1017 30 48 N/A
1:50 am 01:50 Mostly Cloudy 57 14 52 11 82 82 VRB 2 4 30.03 1017 30 48 N/A
2:20 am 02:20 Cloudy 57 14 52 11 82 82 VRB 2 4 30.03 1017 30 48 N/A
2:50 am 02:50 Cloudy 59 15 52 11 77 77 W 3 6 30.03 1017 30 48 N/A
3:20 am 03:20 Mostly Cloudy 57 14 52 11 82 82 VRB 2 4 30.03 1017 30 48 N/A
3:50 am 03:50 Cloudy 57 14 52 11 82 82 VRB 1 2 30.03 1017 30 48 N/A
4:20 am 04:20 Cloudy 55 13 52 11 88 88 VRB 2 4 30.03 1017 30 48 N/A
4:50 am 04:50 Mostly Cloudy 55 13 52 11 88 88 VRB 2 4 30.03 1017 30 48 N/A
5:20 am 05:20 Mostly Cloudy 55 13 52 11 88 88 W 3 6 30.00 1016 30 48 N/A
5:50 am 05:50 Mostly Cloudy 55 13 52 11 88 88 VRB 2 4 30.00 1016 30 48 N/A
6:20 am 06:20 Mostly Cloudy 57 14 52 11 82 82 VRB 2 4 30.03 1017 30 48 N/A
6:50 am 06:50 Cloudy 57 14 54 12 88 88 VRB 2 4 30.03 1017 30 48 N/A
7:20 am 07:20 Mostly Cloudy 59 15 54 12 82 82 VRB 2 4 30.03 1017 30 48 N/A
7:50 am 07:50 Mostly Cloudy 59 15 54 12 82 82 WSW 5 7 30.03 1017 30 48 N/A
8:20 am 08:20 Mostly Cloudy with Light Rain 59 15 54 12 82 82 VRB 5 7 30.03 1017 30 48 N/A
8:50 am 08:50 Mostly Cloudy 59 15 54 12 82 82 VRB 3 6 30.03 1017 30 48 N/A
9:20 am 09:20 Mostly Cloudy 61 16 54 12 77 77 W 7 11 30.03 1017 30 48 N/A
9:50 am 09:50 Mostly Cloudy with Light Showers 57 14 55 13 94 94 W 8 13 30.03 1017 6 9 N/A
10:20 am 10:20 Mostly Cloudy 63 17 54 12 73 73 W 8 13 30.03 1017 30 48 N/A
10:50 am 10:50 Mostly Cloudy 63 17 52 11 68 68 W 9 15 30.03 1017 30 48 N/A
11:20 am 11:20 Mostly Cloudy with Drizzle 63 17 52 11 68 68 W 9 15 30.03 1017 30 48 N/A
11:50 am 11:50 Mostly Cloudy 63 17 54 12 73 73 W 7 11 30.03 1017 30 48 N/A
12:20 pm 12:20 Mostly Cloudy 64 18 52 11 64 64 W 9 15 30.03 1017 30 48 N/A
12:50 pm 12:50 Mostly Sunny 66 19 50 10 56 56 WSW 12 19 30.03 1017 30 48 N/A
1:20 pm 13:20 Partly Cloudy 64 18 52 11 64 64 W 10 17 30.03 1017 30 48 N/A
1:50 pm 13:50 Mostly Sunny 66 19 52 11 60 60 WNW 10 17 30.03 1017 30 48 N/A
2:20 pm 14:20 Mostly Sunny 66 19 50 10 56 56 W 12 19 30.03 1017 30 48 N/A
2:50 pm 14:50 Mostly Sunny 66 19 50 10 56 56 W 13 20 30.06 1018 30 48 N/A
3:20 pm 15:20 Mostly Sunny 68 20 50 10 53 53 W 10 17 30.06 1018 30 48 N/A
3:50 pm 15:50 Partly Cloudy 66 19 52 11 60 60 WNW 10 17 30.06 1018 30 48 N/A
4:20 pm 16:20 Mostly Sunny 66 19 52 11 60 60 WNW 10 17 30.06 1018 30 48 N/A
4:50 pm 16:50 Partly Cloudy 64 18 50 10 60 60 WNW 12 19 30.06 1018 30 48 N/A
5:20 pm 17:20 Mostly Sunny 66 19 50 10 56 56 W 12 19 30.06 1018 30 48 N/A
5:50 pm 17:50 Mostly Sunny 66 19 52 11 60 60 W 12 19 30.06 1018 30 48 N/A
6:20 pm 18:20 Mostly Cloudy 66 19 48 9 52 52 WNW 12 19 30.06 1018 30 48 N/A
6:50 pm 18:50 Cloudy 66 19 50 10 56 56 WNW 10 17 30.06 1018 30 48 N/A
7:20 pm 19:20 Mostly Cloudy 64 18 50 10 60 60 WNW 10 17 30.06 1018 30 48 N/A
7:50 pm 19:50 Mostly Cloudy 64 18 52 11 64 64 NW 10 17 30.06 1018 30 48 N/A
8:20 pm 20:20 Mostly Cloudy 63 17 50 10 64 64 W 6 9 30.09 1019 30 48 N/A
8:50 pm 20:50 Mostly Cloudy 63 17 52 11 68 68 WNW 8 13 30.09 1019 30 48 N/A
9:20 pm 21:20 Mostly Cloudy 63 17 50 10 64 64 WNW 7 11 30.09 1019 30 48 N/A
9:50 pm 21:50 Mostly Cloudy 61 16 50 10 68 68 WNW 8 13 30.09 1019 30 48 N/A
10:20 pm 22:20 Mostly Cloudy 61 16 50 10 68 68 WNW 5 7 30.09 1019 30 48 N/A
10:50 pm 22:50 Mostly Cloudy 59 15 50 10 72 72 W 3 6 30.12 1020 30 48 N/A
11:20 pm 23:20 Partly Cloudy 57 14 50 10 77 77 WNW 2 4 30.12 1020 30 48 N/A
11:50 pm 23:50 Mostly Clear 55 13 50 10 82 82 VRB 2 4 30.12 1020 30 48 N/A

Powered by AerisWeather